Temperature
22 21 21 20 20 20 21 22 23 23 22 22 22 22 21 20 20 20 20 20 20 20 19 19 19 19 19 19 19 19 19 19 19 19 19 19 19 19 19 19 19 19 19 19 19 19 18 18 18
22 21 21 21 20 20 21 22 22 23 22 22 22 21 21 20 20 20 20 20 20 20 20 19 19 19 19 19 19 19 19 19 19 19 19 19 19 19 19 19 19 19 19 19 18 18 18 18 18
21 21 21 19 20 21 22 23 23 23 23 23 22 21 21 20 20 20 20 20 20 20 20 20 19 19 19 19 19 19 19 19 19 19 19 19 19 19 19 18 19 18 18 18 18 18 18 18 18
21 21 21 20 22 22 22 23 23 23 23 22 22 21 21 20 21 20 20 20 20 20 20 20 19 19 19 19 19 19 19 19 19 19 19 19 19 19 19 19 19 19 18 18 18 18 18 18 18
22 22 20 21 22 23 23 23 23 23 23 22 21 20 20 20 21 21 20 20 20 20 20 20 19 19 19 19 19 19 19 19 19 19 19 19 19 19 18 18 18 18 18 18 18 18 18 18 18
22 21 20 21 23 23 23 24 23 22 22 22 21 20 20 20 21 21 20 20 20 20 20 20 19 19 19 19 19 19 19 19 19 19 19 19 19 19 19 19 18 18 18 18 18 18 18 18 18
22 20 21 22 23 23 24 24 23 22 22 22 21 20 20 20 21 20 20 20 20 20 20 20 19 19 19 19 19 19 19 19 19 19 19 19 19 19 19 19 18 18 18 18 18 18 18 18 18
23 20 22 22 23 23 24 24 24 23 22 22 22 20 20 20 20 20 20 20 20 20 20 20 19 19 19 19 19 19 19 19 19 19 19 19 19 19 19 19 18 18 18 18 18 18 18 18 18
23 21 21 22 23 23 24 24 24 23 23 22 22 22 21 20 20 20 20 20 20 20 20 20 19 19 19 19 19 19 19 19 19 19 19 19 19 19 18 18 18 18 18 18 18 18 18 18 18
23 21 23 23 23 23 24 24 24 23 22 22 21 21 21 21 20 20 20 20 20 20 20 20 20 19 19 19 19 19 19 19 19 19 19 19 19 18 18 18 18 18 18 18 18 18 18 18 18
23 22 23 24 25 25 24 24 24 23 22 22 22 21 21 21 20 20 20 20 20 20 20 20 20 20 19 19 19 19 19 19 19 19 19 19 19 19 18 18 18 18 18 18 18 18 18 18 18
23 24 24 25 25 25 24 24 24 23 23 24 23 22 21 21 21 21 21 20 20 20 20 20 20 20 20 19 19 19 19 19 19 19 19 19 19 19 18 18 18 18 18 18 18 18 18 18 18
24 24 25 25 25 25 25 24 24 23 24 23 22 22 21 21 21 21 21 20 20 20 20 20 20 20 20 19 19 19 19 19 19 19 19 19 19 19 18 18 18 18 18 18 18 18 18 18 18
25 24 25 25 25 25 24 24 24 23 23 23 22 22 21 21 21 21 21 20 20 20 20 20 20 20 20 19 19 19 19 19 19 19 19 18 18 18 18 18 18 18 18 18 18 18 18 18 18
25 24 24 25 25 25 25 24 23 23 23 22 22 21 21 21 21 21 21 21 21 20 20 20 20 20 19 19 19 19 19 19 19 19 19 18 18 18 18 18 18 18 18 18 18 18 18 18 18
24 23 24 25 25 25 24 23 23 23 23 22 21 21 21 21 21 21 21 21 21 21 20 20 20 20 20 19 19 19 19 19 19 19 19 19 18 18 18 18 18 18 18 18 18 18 18 18 18
23 23 24 25 25 24 24 23 23 23 22 22 21 21 21 21 21 21 21 21 21 21 20 20 20 20 20 19 19 19 19 19 19 19 19 19 19 18 18 18 18 18 18 19 18 18 18 18 18
24 24 24 24 25 24 23 23 23 22 22 22 22 21 21 21 22 22 22 21 21 21 21 20 20 20 20 19 19 19 19 19 19 19 19 19 19 18 18 18 18 18 18 18 18 18 18 18 18
24 24 24 24 25 24 23 23 22 22 22 21 21 21 21 22 22 22 22 21 21 21 21 20 20 20 20 20 19 19 19 19 19 19 19 19 19 19 19 19 19 18 18 18 18 18 18 18 18
24 24 24 24 25 24 23 23 23 22 22 22 21 21 22 22 22 22 22 21 21 21 21 20 20 20 20 20 20 19 19 19 19 19 19 19 19 19 19 19 19 19 19 18 18 18 18 18 18
24 24 24 24 24 23 23 23 22 22 22 22 22 22 22 22 22 22 22 21 21 21 21 21 21 20 20 20 20 19 19 19 19 19 19 19 19 19 18 18 19 19 19 19 19 18 18 18 18
24 25 25 24 23 22 23 22 22 21 21 21 22 22 22 22 22 22 22 22 22 22 21 21 21 21 20 20 20 20 20 19 19 19 19 19 19 19 19 19 19 18 18 18 18 18 18 18 18
25 25 24 23 22 21 21 21 21 21 21 21 21 22 22 22 23 23 23 22 22 22 22 21 21 21 20 20 20 20 20 19 19 19 19 19 18 18 18 18 18 18 18 18 18 18 18 18 18
25 23 22 20 20 21 22 21 21 20 21 21 21 22 22 23 23 23 23 23 22 22 22 21 21 21 20 20 20 20 20 19 19 19 19 19 19 19 18 18 18 18 18 18 18 18 18 18 18
23 22 21 22 20 21 21 21 21 22 22 22 22 22 22 23 23 23 23 23 22 22 22 22 21 21 21 20 20 20 20 19 19 19 19 19 19 19 19 18 18 18 18 18 18 18 18 18 18
23 22 21 22 21 20 20 21 21 22 22 22 22 22 22 22 23 23 23 23 22 22 22 22 22 21 21 20 20 20 20 19 19 19 19 19 19 19 18 18 18 18 18 18 18 18 18 18 18
22 21 20 19 20 20 20 21 21 22 21 21 21 22 22 22 23 23 23 23 22 22 22 22 22 21 21 20 20 20 20 19 19 19 19 19 19 18 18 18 18 18 18 18 18 18 18 18 18
22 19 18 19 20 21 21 21 21 21 20 20 20 20 21 22 22 23 22 22 22 22 22 22 22 21 21 21 20 20 20 19 19 19 19 19 19 18 18 18 18 18 18 18 18 18 18 18 18
21 20 18 17 18 20 21 21 21 20 20 19 19 20 21 21 22 22 22 22 22 22 22 22 21 21 21 21 20 20 20 19 19 19 19 19 19 18 18 18 18 18 18 18 18 18 18 18 18
22 20 18 20 19 18 19 20 21 20 19 19 19 20 20 21 22 22 22 22 21 21 21 21 21 21 21 21 20 20 20 19 19 19 19 19 18 18 18 18 18 18 18 18 18 18 17 17 17
Wind_Speed
9 6 2 1 3 4 3 3 1 3 3 3 5 6 6 4 2 2 0 3 3 3 2 4 5 6 7 8 8 9 8 8 9 9 9 11 12 13 14 14 14 14 13 15 16 16 16 16 16
6 4 1 2 4 3 3 2 2 2 4 4 5 5 6 4 3 4 2 2 3 3 3 4 6 6 7 8 8 8 8 9 9 9 10 11 12 13 14 15 15 15 15 16 17 17 16 16 16
5 2 2 3 3 2 1 1 2 4 4 2 4 5 4 3 3 2 2 5 4 3 3 4 6 7 7 8 8 8 8 8 9 9 10 11 12 13 15 15 15 15 15 15 16 16 16 16 15
2 1 3 4 2 2 3 2 3 4 3 4 4 4 3 2 3 3 5 6 5 3 3 4 7 7 8 8 8 8 8 8 8 9 10 11 13 14 14 14 15 15 15 15 15 15 15 14 14
1 3 4 3 3 2 1 3 2 3 3 4 4 5 3 4 6 8 7 5 4 3 2 4 6 7 7 7 8 8 8 8 9 9 10 11 12 13 14 14 14 15 15 15 15 15 14 14 14
3 3 4 2 3 2 1 2 3 4 4 4 5 4 2 2 6 6 6 4 3 3 2 3 6 7 7 7 7 7 7 9 10 10 10 11 12 13 13 14 14 14 14 14 14 14 13 13 12
3 3 2 0 1 1 1 3 5 5 5 4 4 4 2 2 4 6 5 4 3 3 2 2 3 4 6 6 6 7 7 8 9 10 10 12 13 13 13 13 13 13 13 13 12 12 12 11 10
3 3 2 1 1 1 1 3 4 5 4 4 5 6 4 4 6 7 6 5 3 3 2 2 2 3 4 4 5 6 7 8 8 9 10 12 12 12 11 11 11 11 11 11 11 10 9 9 9
3 4 0 2 3 2 2 4 3 4 6 3 3 4 5 10 9 8 5 3 2 1 1 1 2 3 3 3 4 4 5 6 6 7 10 9 8 8 8 8 9 9 9 9 9 8 8 7 6
4 2 4 3 4 3 2 3 4 5 4 4 5 6 10 10 9 8 6 4 3 2 1 1 1 1 2 2 3 4 4 5 5 6 6 6 6 6 6 7 7 8 8 7 7 6 5 5 4
3 4 2 1 3 4 3 3 4 8 4 5 8 10 11 10 8 7 5 4 4 3 2 2 2 1 1 2 2 3 3 4 4 5 5 5 5 4 4 4 4 5 5 5 5 4 3 4 4
2 2 2 1 2 3 4 4 4 4 4 6 10 13 12 10 8 7 6 4 3 3 2 2 2 2 1 1 2 2 2 2 2 3 3 4 3 3 2 2 3 3 3 3 2 2 2 3 3
1 1 1 1 2 2 4 4 4 2 5 9 11 11 11 10 7 6 5 4 4 3 3 3 3 2 2 2 1 2 2 2 2 2 2 3 2 2 2 2 2 2 2 2 2 1 1 1 1
0 1 2 2 2 2 5 3 4 3 8 10 10 9 9 9 7 5 5 4 4 4 4 3 3 3 3 2 2 1 1 2 2 1 1 2 2 2 1 1 1 1 1 2 1 1 1 0 1
2 3 5 3 2 2 6 3 1 5 10 10 9 8 8 7 7 7 7 6 6 5 4 4 4 3 3 3 2 2 2 2 2 2 1 2 3 2 1 1 0 0 1 1 2 1 1 1 1
4 4 2 3 1 2 5 1 2 7 10 9 8 7 7 6 7 6 6 5 5 5 4 4 4 4 3 3 2 2 2 2 1 2 2 2 2 3 2 1 0 1 2 2 1 1 1 1 1
5 2 1 3 1 2 3 3 2 6 9 9 8 7 7 5 5 5 6 6 6 6 5 5 4 4 4 3 2 2 2 1 1 2 2 2 2 3 2 1 1 1 1 1 1 1 1 1 1
2 1 2 3 2 2 2 3 3 7 9 9 8 7 7 7 7 6 6 6 6 5 5 5 4 4 4 3 2 2 2 1 1 1 1 2 2 2 2 1 0 1 1 1 1 1 1 1 1
4 3 3 5 2 2 2 3 4 6 7 7 7 6 7 7 5 4 5 5 5 5 5 5 5 4 4 3 2 2 1 0 0 0 1 1 1 2 2 1 0 1 1 1 2 2 2 1 1
3 1 2 3 1 2 1 3 3 5 8 9 9 9 8 6 5 5 5 5 6 6 6 6 5 5 4 3 3 2 2 1 0 1 1 0 1 2 2 2 1 1 2 2 2 2 1 1 1
2 4 4 3 2 3 2 4 3 3 4 5 6 7 7 9 9 8 7 7 6 6 7 7 6 5 4 4 3 3 3 2 2 1 1 1 0 1 1 1 1 1 2 2 2 2 2 2 1
4 5 5 3 2 1 2 2 6 3 3 6 8 8 9 10 9 8 8 8 8 8 6 5 6 5 4 4 4 4 3 2 1 0 0 1 1 1 1 1 1 1 1 2 2 2 2 3 2
5 1 3 2 3 2 2 2 7 1 4 7 8 10 10 10 11 11 11 10 8 7 6 5 5 5 4 4 5 4 3 2 1 1 1 1 2 2 1 1 1 1 1 1 1 2 2 2 2
5 7 7 6 5 1 3 3 6 4 6 6 6 8 9 10 10 10 9 7 7 6 6 6 6 5 5 5 5 5 5 3 2 1 1 0 1 1 1 1 1 1 1 1 1 1 2 2 2
5 6 4 5 4 4 2 2 7 6 6 6 7 7 7 8 9 9 9 9 9 8 8 8 7 6 5 5 5 5 5 5 4 3 2 1 0 1 1 0 1 1 1 1 1 2 1 1 2
3 7 7 4 4 4 2 4 6 4 2 2 3 4 5 5 6 7 8 9 9 9 9 8 8 7 6 6 5 4 4 3 3 3 2 2 2 2 1 1 1 1 1 1 1 1 1 1 1
5 3 5 6 2 1 5 5 6 2 4 2 2 3 3 5 6 6 7 8 8 8 9 9 9 7 6 6 5 3 3 3 3 3 2 2 2 1 1 1 1 1 1 1 2 1 1 1 1
5 8 6 6 4 2 5 4 3 4 3 2 1 2 2 3 4 4 5 7 7 7 7 7 7 7 6 6 5 5 4 4 4 3 3 3 3 2 2 2 1 1 1 1 1 1 1 1 1
4 5 6 5 5 5 3 5 3 5 4 3 2 2 2 2 3 3 4 5 6 6 7 6 6 5 5 6 5 4 4 4 3 3 3 3 2 2 3 3 2 2 2 2 1 2 1 2 2
4 6 6 5 3 4 4 6 4 1 1 1 1 1 1 1 1 2 4 5 5 5 6 6 5 5 5 5 5 4 4 3 3 3 3 3 3 2 3 2 2 2 2 2 2 2 2 2 3
Wind_Direction
161 153 155 120 54 50 24 345 37 42 47 38 65 79 92 87 108 136 263 109 104 109 125 127 104 95 91 86 87 86 86 89 91 95 100 112 119 123 123 122 121 123 126 129 134 134 134 133 135
151 158 157 57 70 56 346 341 56 75 135 129 72 68 70 63 68 105 110 122 111 113 111 120 111 104 95 88 84 83 85 88 90 95 102 110 117 120 120 120 119 116 116 120 123 125 127 127 130
165 194 70 64 80 141 219 305 119 101 117 94 70 59 75 85 106 134 157 131 104 95 103 118 111 106 96 88 84 83 86 88 92 98 103 109 115 118 118 117 118 116 115 115 117 121 123 123 124
159 69 52 62 54 229 191 196 139 130 83 55 86 65 57 57 130 134 128 122 109 95 112 127 114 109 101 91 87 81 81 86 96 101 104 108 113 115 116 117 119 118 115 113 113 120 119 122 120
85 79 55 38 341 338 136 167 156 112 86 74 91 85 42 16 91 112 120 120 119 105 102 126 120 114 105 97 90 86 81 87 97 101 108 113 117 118 118 117 116 116 115 114 113 117 119 118 119
59 63 67 25 343 14 63 126 115 101 95 89 94 87 44 65 101 117 120 116 116 107 74 107 124 118 108 100 93 88 87 91 94 99 108 117 119 119 117 116 116 115 115 115 116 118 118 119 119
92 77 92 32 348 6 101 85 109 115 113 122 117 93 74 105 115 115 109 106 94 80 65 58 105 117 114 107 98 91 88 87 89 94 104 112 115 115 116 115 116 116 116 117 120 120 122 123 124
126 91 52 5 192 279 74 72 97 110 110 120 116 131 170 175 129 108 95 87 80 69 67 55 66 82 91 102 102 97 90 87 87 93 102 107 110 111 112 112 116 118 118 120 123 122 122 122 125
108 74 119 218 191 206 104 90 86 88 103 106 114 140 154 137 125 114 104 88 92 94 39 63 60 70 86 93 94 88 88 83 81 84 96 96 92 96 103 111 115 115 117 120 122 120 116 113 113
100 120 221 210 181 163 138 125 130 105 108 100 88 96 119 132 135 135 142 151 166 191 204 141 109 81 78 91 77 71 74 70 67 67 72 78 85 93 99 104 109 114 117 117 114 113 110 103 96
142 182 221 226 183 148 137 132 124 128 152 171 153 145 141 143 143 148 159 169 181 176 163 152 144 106 84 69 78 72 70 66 65 68 71 75 78 82 80 76 81 89 99 94 92 86 87 97 96
149 248 205 232 127 128 146 137 123 150 190 159 150 148 148 153 161 167 171 177 161 145 161 151 147 132 116 103 95 88 80 72 69 69 74 85 87 85 82 81 77 79 82 82 77 81 79 94 106
137 282 45 133 62 124 117 122 131 136 118 122 131 142 154 163 169 173 170 167 158 165 173 163 160 156 146 137 137 115 103 106 101 83 84 104 104 96 85 71 74 82 89 100 100 96 89 98 113
196 57 21 32 60 82 109 88 95 139 126 127 140 154 164 169 169 163 164 170 173 178 181 167 162 167 153 149 151 142 146 145 131 118 119 124 124 111 95 76 62 71 97 99 105 126 130 129 119
66 52 16 17 46 91 99 56 180 153 139 145 159 165 168 171 167 174 180 179 179 178 173 167 167 156 153 160 164 145 160 159 144 172 168 148 142 138 125 108 75 318 95 96 92 76 77 85 98
44 52 17 299 46 108 110 209 230 151 150 160 170 170 171 182 186 185 178 175 175 167 167 176 172 154 156 157 151 132 148 154 170 176 181 178 160 160 149 143 211 167 117 124 126 99 79 71 107
35 53 287 287 206 123 125 227 224 161 163 172 178 177 175 182 196 194 183 178 176 172 168 168 162 155 154 146 137 129 120 135 169 171 183 191 171 165 157 153 176 140 121 138 150 117 131 125 127
214 218 282 273 251 119 144 240 214 174 175 183 185 184 182 190 203 196 184 179 172 167 163 164 159 152 141 124 106 88 71 61 107 156 197 190 185 166 148 151 156 128 115 121 132 130 108 133 147
169 180 263 272 234 128 196 237 234 181 177 185 191 195 201 206 203 184 179 172 163 163 164 171 165 161 144 137 140 137 162 254 15 294 238 206 189 170 155 179 156 138 152 172 152 145 120 87 119
163 189 270 307 13 116 205 273 250 191 196 193 192 198 203 195 183 186 182 175 177 181 182 180 178 171 165 161 158 151 144 135 200 338 9 163 168 170 169 172 169 159 156 152 153 154 142 108 111
214 193 212 227 13 51 76 337 295 250 207 198 198 200 200 198 196 193 191 187 180 184 188 189 185 177 172 154 125 100 79 54 40 13 347 332 173 169 165 158 153 154 163 175 182 167 162 175 125
237 218 187 178 111 308 80 274 283 258 249 219 212 205 203 203 198 194 195 193 191 193 184 179 173 169 164 151 143 139 148 168 203 229 319 355 27 81 133 131 135 133 137 162 187 173 165 163 176
206 127 120 117 124 61 22 173 283 308 261 248 228 218 210 201 197 197 198 197 193 186 177 175 166 166 164 157 155 151 154 174 150 91 60 17 12 25 60 91 103 110 120 130 141 133 150 166 172
130 74 59 53 70 16 244 183 274 238 234 245 226 218 210 202 199 199 195 186 185 176 170 170 168 175 169 166 166 164 169 162 145 136 129 357 353 1 15 74 87 84 99 119 131 126 133 152 153
88 88 37 5 10 258 266 199 251 254 238 220 214 208 199 194 191 192 188 185 184 181 179 176 174 183 179 175 178 176 174 166 175 187 190 187 234 296 293 113 126 127 128 118 113 118 127 153 150
166 137 154 192 224 278 327 236 257 274 269 231 201 182 171 178 185 190 191 187 186 184 180 177 179 186 184 183 190 185 177 177 190 194 188 199 218 236 242 184 169 164 155 141 122 131 166 145 161
130 135 154 133 137 309 288 287 309 352 25 45 101 127 163 181 186 190 184 179 182 180 180 179 178 181 181 183 182 181 183 187 197 197 193 204 219 225 206 187 185 203 182 171 149 156 187 152 182
124 138 98 115 143 242 296 290 271 300 329 360 58 183 197 185 187 185 180 182 180 177 173 170 175 179 179 176 180 186 188 196 196 186 194 205 212 211 190 196 198 200 193 179 170 188 200 181 228
93 88 99 108 141 156 237 271 252 239 230 213 221 226 205 175 181 182 176 171 164 157 157 164 172 171 171 176 178 178 185 196 190 196 211 214 214 209 209 212 210 208 209 197 186 211 210 209 236
138 145 140 143 200 173 182 260 323 252 181 163 153 30 71 140 146 151 144 141 140 148 158 165 172 179 185 180 174 181 188 187 194 206 217 210 211 214 215 214 216 223 223 213 204 223 228 223 235
Height
1486 1485 1486 1488 1490 1499 1501 1494 1488 1488 1488 1489 1488 1489 1491 1494 1497 1502 1498 1495 1496 1495 1494 1494 1493 1492 1492 1490 1490 1489 1488 1487 1486 1485 1483 1483 1485 1487 1489 1491 1493 1494 1494 1494 1498 1503 1506 1509 1511
1486 1486 1488 1489 1497 1509 1504 1492 1490 1488 1489 1490 1490 1491 1492 1494 1495 1496 1496 1497 1497 1497 1496 1496 1495 1494 1494 1493 1492 1491 1490 1489 1488 1487 1486 1486 1488 1490 1492 1494 1496 1497 1497 1499 1502 1505 1508 1511 1513
1487 1488 1490 1492 1500 1506 1501 1491 1489 1489 1490 1490 1492 1493 1494 1496 1497 1497 1498 1498 1498 1498 1498 1498 1497 1496 1496 1495 1494 1493 1492 1490 1489 1488 1488 1488 1490 1492 1494 1497 1499 1500 1502 1503 1505 1508 1511 1514 1516
1488 1490 1491 1496 1500 1496 1492 1490 1488 1490 1491 1492 1493 1495 1497 1499 1499 1499 1499 1500 1500 1500 1500 1500 1500 1499 1499 1498 1497 1495 1494 1492 1491 1490 1490 1491 1492 1495 1497 1499 1502 1504 1506 1507 1509 1511 1514 1516 1519
1489 1490 1496 1502 1498 1492 1488 1488 1489 1490 1491 1493 1494 1497 1499 1501 1500 1501 1501 1502 1502 1502 1502 1502 1502 1502 1501 1500 1499 1498 1496 1494 1493 1492 1492 1493 1495 1498 1500 1503 1505 1507 1509 1511 1512 1515 1517 1520 1522
1491 1491 1504 1508 1499 1492 1489 1488 1489 1490 1492 1494 1496 1498 1501 1502 1502 1503 1503 1504 1504 1504 1504 1505 1504 1504 1504 1503 1502 1501 1499 1498 1496 1495 1494 1495 1498 1501 1504 1506 1509 1511 1513 1515 1516 1519 1521 1523 1525
1492 1496 1504 1503 1500 1495 1491 1490 1490 1491 1493 1495 1497 1499 1502 1503 1504 1505 1505 1506 1506 1506 1506 1507 1507 1507 1506 1506 1505 1503 1502 1501 1500 1498 1496 1498 1501 1504 1507 1510 1512 1514 1516 1518 1520 1522 1524 1526 1528
1492 1496 1502 1503 1501 1497 1492 1491 1492 1493 1495 1497 1498 1500 1502 1504 1505 1506 1507 1507 1508 1508 1508 1509 1509 1509 1509 1508 1508 1507 1506 1505 1503 1502 1501 1503 1506 1509 1511 1514 1516 1518 1520 1522 1523 1525 1527 1529 1531
1492 1501 1506 1502 1499 1495 1492 1493 1495 1495 1496 1498 1499 1500 1502 1504 1505 1507 1507 1508 1509 1509 1510 1510 1511 1511 1511 1511 1511 1510 1510 1509 1508 1507 1507 1509 1511 1513 1515 1517 1519 1521 1523 1525 1526 1528 1529 1531 1533
1493 1503 1500 1493 1492 1492 1492 1493 1495 1496 1498 1499 1500 1502 1503 1505 1506 1507 1508 1509 1509 1510 1510 1511 1512 1513 1513 1513 1513 1513 1513 1513 1513 1513 1513 1514 1515 1517 1519 1521 1522 1524 1525 1527 1529 1530 1531 1533 1534
1492 1496 1492 1490 1490 1491 1492 1493 1495 1496 1499 1499 1499 1501 1504 1506 1507 1508 1509 1510 1511 1511 1512 1513 1514 1515 1515 1516 1516 1516 1517 1517 1517 1517 1518 1518 1519 1520 1522 1523 1525 1526 1528 1529 1530 1532 1533 1534 1535
1493 1491 1491 1490 1490 1491 1492 1494 1495 1496 1497 1498 1500 1502 1504 1506 1508 1509 1510 1511 1513 1513 1514 1515 1516 1517 1518 1518 1519 1519 1519 1520 1520 1521 1521 1522 1522 1523 1525 1525 1527 1528 1529 1530 1532 1533 1534 1535 1536
1493 1491 1491 1490 1491 1492 1493 1494 1495 1497 1498 1500 1502 1504 1505 1507 1509 1511 1513 1514 1514 1515 1516 1517 1518 1519 1520 1520 1521 1522 1522 1522 1523 1524 1524 1525 1525 1526 1527 1528 1529 1530 1531 1532 1533 1534 1535 1536 1536
1493 1492 1492 1492 1492 1493 1494 1496 1497 1499 1500 1501 1503 1505 1506 1508 1510 1512 1513 1514 1515 1516 1517 1518 1519 1520 1521 1522 1523 1524 1524 1525 1525 1526 1527 1527 1528 1528 1529 1530 1530 1531 1532 1533 1533 1534 1535 1536 1536
1493 1495 1495 1494 1493 1494 1496 1500 1499 1499 1501 1502 1504 1506 1508 1510 1511 1513 1514 1515 1516 1517 1519 1520 1521 1522 1523 1523 1524 1525 1526 1527 1527 1528 1528 1529 1529 1530 1530 1531 1531 1532 1533 1533 1534 1535 1535 1536 1537
1495 1501 1506 1497 1495 1496 1501 1508 1500 1500 1501 1503 1505 1507 1509 1510 1512 1513 1515 1516 1517 1518 1519 1520 1521 1522 1524 1525 1526 1527 1528 1528 1529 1529 1530 1530 1531 1531 1531 1532 1532 1532 1533 1533 1534 1535 1535 1536 1537
1506 1512 1509 1502 1495 1496 1500 1505 1500 1500 1501 1503 1505 1507 1509 1511 1512 1513 1515 1516 1517 1518 1520 1521 1522 1523 1524 1526 1527 1528 1529 1530 1530 1530 1531 1531 1532 1532 1532 1532 1533 1533 1533 1533 1534 1535 1535 1536 1536
1512 1511 1509 1506 1497 1497 1502 1503 1499 1499 1501 1502 1504 1506 1508 1509 1511 1513 1514 1516 1517 1519 1520 1521 1522 1524 1525 1526 1528 1529 1530 1530 1531 1531 1532 1532 1532 1532 1533 1533 1533 1533 1533 1533 1534 1535 1535 1536 1536
1501 1506 1509 1503 1495 1499 1502 1502 1499 1499 1500 1502 1504 1505 1507 1508 1511 1513 1514 1516 1517 1519 1520 1521 1523 1524 1525 1526 1528 1529 1530 1531 1531 1532 1532 1532 1533 1533 1533 1533 1533 1533 1533 1533 1534 1534 1535 1535 1536
1500 1506 1507 1501 1495 1499 1503 1503 1499 1499 1499 1499 1501 1503 1505 1508 1510 1511 1513 1515 1516 1518 1519 1521 1522 1524 1525 1527 1528 1529 1530 1531 1532 1532 1533 1533 1533 1533 1533 1533 1533 1533 1532 1532 1533 1533 1534 1535 1535
1500 1504 1504 1504 1499 1500 1504 1508 1502 1498 1498 1499 1500 1501 1504 1506 1507 1509 1511 1513 1515 1517 1518 1520 1522 1524 1525 1527 1528 1529 1530 1531 1532 1532 1532 1533 1533 1533 1533 1533 1533 1532 1532 1532 1533 1533 1533 1534 1535
1503 1494 1496 1499 1508 1516 1510 1525 1508 1501 1499 1497 1497 1499 1500 1502 1504 1506 1509 1511 1513 1515 1518 1520 1522 1523 1525 1526 1527 1528 1529 1530 1531 1532 1532 1532 1533 1533 1533 1533 1533 1532 1532 1532 1532 1533 1533 1534 1534
1494 1490 1495 1500 1508 1518 1516 1523 1515 1503 1502 1497 1495 1495 1496 1499 1501 1503 1505 1508 1511 1514 1517 1519 1521 1523 1524 1526 1527 1528 1529 1530 1531 1532 1532 1532 1532 1533 1533 1533 1533 1532 1532 1532 1532 1533 1533 1533 1533
1488 1495 1502 1510 1517 1529 1519 1523 1519 1507 1499 1493 1491 1491 1493 1495 1498 1500 1504 1507 1510 1513 1515 1518 1519 1521 1523 1525 1526 1527 1528 1529 1530 1531 1532 1532 1532 1532 1533 1533 1532 1532 1532 1532 1532 1532 1532 1532 1533
1492 1508 1527 1530 1537 1533 1518 1520 1515 1495 1490 1488 1488 1488 1490 1492 1495 1498 1501 1504 1507 1510 1513 1515 1518 1520 1522 1523 1525 1526 1527 1529 1529 1530 1531 1531 1532 1532 1532 1532 1532 1532 1532 1532 1532 1532 1532 1532 1532
1496 1504 1527 1537 1540 1532 1520 1520 1504 1489 1487 1487 1487 1488 1490 1491 1493 1496 1498 1501 1504 1507 1510 1513 1515 1517 1520 1522 1524 1525 1527 1528 1528 1529 1530 1531 1531 1531 1532 1532 1532 1531 1532 1531 1531 1531 1531 1531 1531
1497 1505 1506 1523 1529 1534 1526 1513 1499 1489 1488 1488 1488 1488 1489 1490 1492 1494 1496 1498 1501 1504 1507 1510 1513 1515 1518 1520 1522 1524 1525 1527 1527 1528 1529 1529 1530 1530 1531 1531 1531 1530 1530 1530 1530 1530 1530 1530 1529
1490 1500 1513 1525 1536 1539 1526 1518 1512 1497 1493 1490 1489 1488 1488 1489 1491 1492 1494 1496 1499 1502 1505 1508 1511 1513 1516 1518 1520 1522 1523 1525 1526 1527 1527 1528 1528 1529 1529 1529 1529 1529 1529 1529 1528 1528 1528 1528 1528
1496 1503 1512 1523 1525 1537 1536 1522 1497 1495 1492 1491 1489 1488 1488 1489 1489 1491 1493 1495 1497 1500 1503 1506 1509 1511 1514 1516 1518 1520 1521 1523 1524 1524 1525 1526 1527 1527 1527 1527 1527 1527 1527 1527 1527 1526 1526 1526 1526
1489 1498 1508 1519 1525 1529 1531 1520 1492 1490 1489 1489 1489 1488 1488 1489 1490 1491 1492 1494 1497 1499 1502 1504 1507 1510 1512 1514 1516 1518 1519 1520 1521 1522 1523 1524 1525 1525 1525 1525 1525 1525 1525 1525 1525 1524 1524 1524 1523